Regional Weather Roundup
Issued by NWS

Home | Current Version | Previous Version | Text Only | Print | Product List | Glossary Off
Versions: 1 2 3 4 5 6 7 8 9 10 11 12 13 14 15 16 17 18 19 20 21 22 23 24 25 26 27 28 29 30 31 32 33 34 35 36 37 38 39 40 41 42 43 44 45 46 47 48 49 50

000
ASUS43 KLSX 262107
RWRMO

WEATHER SUMMARY FOR MISSOURI
NATIONAL WEATHER SERVICE SPRINGFIELD MO
400 PM CDT THU MAR 26 2015

NOTE: "FAIR" INDICATES FEW OR NO CLOUDS BELOW 12,000 FEET WITH NO
       SIGNIFICANT WEATHER AND/OR OBSTRUCTIONS TO VISIBILITY.
       CURRENT SKY AND/OR WEATHER CONDITIONS ARE NOT AVAILABLE FOR
       CHILLICOTHE AND FARMINGTON.

MOZ001>031-035>038-043-044-053-054-262200-
...NORTHERN AND WESTERN MISSOURI...

CITY           SKY/WX    TMP DP  RH WIND       PRES   REMARKS
KANSAS CTY INT MOSUNNY   50  28  42 NW8       30.10F
KANSAS C DTWN  SUNNY     52  27  38 MISG      30.11F
LEE`S SUMMIT   SUNNY     50  25  37 VRB7      30.11F
ST JOSEPH      SUNNY     50  27  40 N14       30.11F
CHILLICOTHE      N/A     51  28  41 NW12G18   30.10F
KIRKSVILLE     SUNNY     50  22  33 NW12G21   30.07F

$$
MOZ066>068-077>081-088>096-101>105-262200-
...SOUTHWEST MISSOURI...

CITY           SKY/WX    TMP DP  RH WIND       PRES   REMARKS
SPRINGFIELD    SUNNY     51  28  41 NW12G20   30.07F
JOPLIN         SUNNY     53  31  42 NW10      30.11F

$$
MOZ032>034-039>042-045>050-055>058-069>072-262200-
...CENTRAL MISSOURI...

CITY           SKY/WX    TMP DP  RH WIND       PRES   REMARKS
COLUMBIA       SUNNY     50  30  46 NW14G23   30.07F
JEFFERSON CITY SUNNY     50  27  40 NW16      30.07F
ROLLA          SUNNY     49  31  49 MISG      30.04F
SEDALIA        SUNNY     50  32  50 NW15      30.11F
WHITEMAN AFB   SUNNY     50  27  40 NW14      30.10F
WARRENSBURG    MOSUNNY   50  27  40 NW12G18   30.11F
OSAGE BEACH    SUNNY     52  28  40 W8        30.08F

$$
MOZ051-052-059>065-262200-
...EAST CENTRAL MISSOURI...

CITY           SKY/WX    TMP DP  RH WIND       PRES   REMARKS
ST LOUIS INTL  MOSUNNY   51  28  41 NW16G22   30.05S
SPIRIT OF STL  SUNNY     50  27  40 NW12G18   30.05S
ST CHARLES     SUNNY     50  29  44 NW13      30.05R

$$
MOZ072>076-082>087-097>100-106>115-262200-
...SOUTH CENTRAL AND SOUTHEAST MISSOURI...

CITY           SKY/WX    TMP DP  RH WIND       PRES   REMARKS
CAPE GIRARDEAU CLOUDY    44  36  73 N13       30.04R
FARMINGTON     MOSUNNY   48  28  46 N12       30.05F
POPLAR BLUFF   CLOUDY    47  35  63 N13       30.03S
WEST PLAINS    SUNNY     52  28  39 MISG      30.03F

$$



USA.gov is the U.S. government's official web portal to all federal, state and local government web resources and services.